weather.gov     
National Weather Service

Regional Weather Roundup
NWS Homepage
This page is being discontinued on March 12, 2014.
The same data is available at this site. Please update your bookmarks.
Thank you, and we apologize for the inconvenience.
Please send an email to SR-SRH.Webmaster@noaa.gov with any concerns.


Current Version
Previous Version:    01  02  03  04  05  06  07  08  09  10  11  12  13  14  15  16  17  18  19  20  21  22  23  24  25  26  
[Printable]
243
ASUS41 KALY 182010
RWRALY

NEW YORK STATE HOURLY WEATHER ROUNDUP
NATIONAL WEATHER SERVICE ALBANY NY
300 PM EST THU DEC 18 2014

NOTE: "FAIR" INDICATES FEW OR NO CLOUDS BELOW 12,000 FEET WITH NO
SIGNIFICANT WEATHER AND/OR NO OBSTRUCTIONS TO VISIBILITY.

NYZ032-033-038>043-046>054-057>066-NYZ062>081-182100-
EAST


CITY           SKY/WX    TMP DP  RH WIND       PRES   REMARKS
ALBANY         CLOUDY    36  26  67 W13       29.91S WCI  27
GLENS FALLS    CLOUDY    38  25  59 W6        29.86R WCI  33
POUGHKEEPSIE   CLOUDY    41  26  55 W10       29.91R
NEWBURGH       PTSUNNY   37  27  65 NW18G30   29.93R WCI  27
MONTGOMERY     CLOUDY    38  26  62 W13G20    29.93R WCI  30
WHITE PLAINS   PTSUNNY   40  25  55 W20G29    29.90R WCI  30
ISLIP          MOSUNNY   42  25  50 W16G25    29.89R
NEW YORK CITY  PTSUNNY   42  25  50 W15G25    29.94R
CENTRAL PARK   SUNNY     41  23  48 W13G23    29.96R
$$

NYZ005>009-017-018-044>046-055-056-182100-
CENTRAL


CITY           SKY/WX    TMP DP  RH WIND       PRES   REMARKS
FULTON         CLOUDY    32  26  78 W13G22    29.99R WCI  22
SYRACUSE       CLOUDY    32  27  81 W13       30.00R WCI  22
ROME           LGT SNOW  31  29  92 NW13      29.98R FOG     WCI  21
ELMIRA         CLOUDY    34  28  79 W16       30.00S WCI  24
BINGHAMTON     CLOUDY    29  26  89 W15       29.94R WCI  18
MONTICELLO     CLOUDY    30  25  80 W15G25    29.92R WCI  19
$$

NYZ026>034-041>043-182100-
NORTH


CITY           SKY/WX    TMP DP  RH WIND       PRES   REMARKS
WATERTOWN      CLOUDY    32  22  66 NW7       29.99R WCI  26
FORT DRUM      NOT AVBL
MASSENA        CLOUDY    29  24  82 W10       29.95R WCI  20
SARANAC LAKE   CLOUDY    25  32 100 VRB6      29.81S WCI  18
PLATTSBURGH    CLOUDY    33  25  72 NW8       29.88R WCI  26
$$

NYZ001>004-010>016-019>021-182100-
WEST


CITY           SKY/WX    TMP DP  RH WIND       PRES   REMARKS
NIAGARA FALLS  CLOUDY    31  27  85 W10       30.05F WCI  22
BUFFALO        FLURRIES  31  26  82 W12       30.05S WCI  22
DUNKIRK        CLOUDY    32  26  78 W10G21    30.08F WCI  24
JAMESTOWN      CLOUDY    28  25  86 W12G21    30.03F WCI  18
WELLSVILLE     MIX PCPN  28  24  85 W16       29.99R WCI  16
ROCHESTER      CLOUDY    32  26  78 W9        30.04R WCI  24
PENN YAN       CLOUDY    33  26  75 W9        30.00S WCI  25
$$

             KEY
       WCI = WIND CHILL INDEX
       VSB = VISIBILITY
       HX  = HEAT INDEX
$$




U.S. Dept. of Commerce
NOAA National Weather Service
1325 East West Highway
Silver Spring, MD 20910
E-mail: w-nws.webmaster@noaa.gov
Page last modified: May 16, 2007
NATIONAL WEATHER SERVICE: for Safety, for Work, for Fun - FOR LIFE